CW3202 Weather Reports


Display with metric or nautical units.
time (UTC)temp
F
wind
direction
speed
MPH
gust
MPH
rain 1hr
in
rain 24hr
in
rain mn
in
humidity
%
barometer
mb
20260507182204 57 216 2.0 5.0 0.00 0.00 0.00 71 1020.1
20260507181704 57 186 3.0 5.0 0.00 0.00 0.00 72 1020.2
20260507181204 56 135 0.0 3.0 0.00 0.00 0.00 69 1020.1
20260507180504 55 271 2.0 4.0 0.00 0.00 0.00 69 1020.1
20260507175804 55 227 2.0 4.0 0.00 0.00 0.00 72 1020.3
20260507175306 55 182 1.0 4.0 0.00 0.00 0.00 72 1020.3
20260507174804 55 198 3.0 4.0 0.00 0.00 0.00 76 1020.3
20260507174304 55 200 3.0 3.0 0.00 0.00 0.00 75 1020.4
20260507173804 56 180 3.0 3.0 0.00 0.00 0.00 73 1020.6
20260507173104 55 101 0.0 2.0 0.00 0.00 0.00 73 1020.6
20260507172604 54 180 1.0 2.0 0.00 0.00 0.00 76 1020.5
20260507172104 54 360 0.0 2.0 0.00 0.00 0.00 77 1020.6
20260507171604 53 51 0.0 2.0 0.00 0.00 0.00 75 1020.6
20260507171005 54 178 2.0 3.0 0.00 0.00 0.00 75 1020.6
20260507170504 53 178 0.0 4.0 0.00 0.00 0.00 74 1020.5
20260507165804 54 175 3.0 4.0 0.00 0.00 0.00 77 1020.6
20260507165306 53 146 0.0 6.0 0.00 0.00 0.00 77 1020.5
20260507164804 53 257 0.0 6.0 0.00 0.00 0.00 75 1020.6
20260507164304 53 252 0.0 4.0 0.00 0.00 0.00 75 1020.7
20260507163804 52 286 0.0 4.0 0.00 0.00 0.00 77 1020.7
20260507163104 52 360 2.0 4.0 0.00 0.00 0.00 76 1020.7
20260507162604 52 360 1.0 3.0 0.00 0.00 0.00 78 1020.7
20260507162104 51 360 1.0 3.0 0.00 0.00 0.00 78 1020.7
20260507161404 51 360 2.0 3.0 0.00 0.00 0.00 78 1020.8
20260507160904 51 302 3.0 4.0 0.00 0.00 0.00 79 1020.8
20260507160404 50 360 3.0 4.0 0.00 0.00 0.00 79 1020.8
20260507155904 50 360 2.0 3.0 0.00 0.00 0.00 81 1020.8
20260507155404 50 360 1.0 5.0 0.00 0.00 0.00 80 1020.9
20260507154904 50 360 2.0 5.0 0.00 0.00 0.00 80 1020.9
20260507154404 50 360 2.0 6.0 0.00 0.00 0.00 80 1020.8
20260507153904 50 360 1.0 6.0 0.00 0.00 0.00 80 1020.9
20260507153404 50 360 3.0 3.0 0.00 0.00 0.00 82 1020.9
20260507152904 50 360 1.0 5.0 0.00 0.00 0.00 82 1020.8
20260507152404 50 360 3.0 5.0 0.00 0.00 0.00 82 1020.9
20260507151704 49 360 1.0 3.0 0.00 0.00 0.00 81 1020.9
20260507151004 49 360 1.0 4.0 0.00 0.00 0.00 83 1020.9
20260507150504 49 360 1.0 4.0 0.00 0.00 0.00 82 1020.8
20260507150004 49 360 2.0 4.0 0.00 0.00 0.00 82 1020.8
20260507145504 49 360 3.0 4.0 0.00 0.00 0.00 81 1020.8
20260507145004 49 360 2.0 4.0 0.00 0.00 0.00 81 1020.7
20260507143904 49 360 1.0 5.0 0.00 0.00 0.00 82 1020.8
20260507143404 49 360 3.0 4.0 0.00 0.00 0.00 83 1020.8
20260507142704 49 360 3.0 5.0 0.00 0.00 0.00 84 1020.7
20260507142004 49 360 3.0 5.0 0.00 0.00 0.00 84 1020.8
20260507141504 48 360 3.0 3.0 0.00 0.00 0.00 85 1020.7
20260507141004 48 360 1.0 3.0 0.00 0.00 0.00 85 1020.6
20260507140504 48 360 2.0 2.0 0.00 0.00 0.00 86 1020.7
20260507140004 48 229 2.0 4.0 0.00 0.00 0.00 85 1020.6
20260507135504 48 234 0.0 4.0 0.00 0.00 0.00 86 1020.5
20260507135004 48 360 4.0 4.0 0.00 0.00 0.00 87 1020.5
20260507134304 48 360 0.0 2.0 0.00 0.00 0.00 87 1020.6
20260507133804 48 221 0.0 2.0 0.00 0.00 0.00 86 1020.6
20260507133304 48 221 0.0 2.0 0.00 0.00 0.00 86 1020.5
20260507132804 48 360 0.0 2.0 0.00 0.00 0.00 87 1020.5
20260507132204 48 360 1.0 2.0 0.00 0.00 0.00 86 1020.6
20260507131704 48 360 2.0 3.0 0.00 0.00 0.00 86 1020.6
20260507131204 48 360 2.0 4.0 0.00 0.00 0.00 85 1020.5
20260507130504 48 360 2.0 4.0 0.00 0.00 0.00 86 1020.4
20260507130004 48 211 3.0 3.0 0.00 0.00 0.00 91 1020.4
20260507125504 48 205 0.0 0.0 0.00 0.00 0.00 92 1020.4
20260507125004 48 205 0.0 1.0 0.00 0.00 0.00 91 1020.3
20260507124504 48 205 0.0 1.0 0.00 0.00 0.00 90 1020.3
20260507124004 48 205 0.0 1.0 0.00 0.00 0.00 90 1020.3
20260507123504 48 360 0.0 0.0 0.00 0.00 0.00 91 1020.4
20260507123004 48 360 0.0 1.0 0.00 0.00 0.00 91 1020.4
20260507121304 48 205 0.0 1.0 0.00 0.00 0.00 91 1020.5
20260507120804 48 205 0.0 0.0 0.00 0.00 0.00 91 1020.5
20260507120304 48 205 0.0 1.0 0.00 0.00 0.00 91 1020.5
20260507115804 48 205 0.0 1.0 0.00 0.00 0.00 91 1020.6
20260507115307 48 205 0.0 1.0 0.00 0.00 0.00 91 1020.7
20260507114804 48 205 1.0 1.0 0.00 0.00 0.00 91 1020.7
20260507114304 48 205 0.0 1.0 0.00 0.00 0.00 91 1020.7
20260507113804 48 205 0.0 0.0 0.00 0.00 0.00 90 1020.8
20260507112904 49 205 0.0 1.0 0.00 0.00 0.00 90 1020.8
20260507112404 49 205 1.0 1.0 0.00 0.00 0.00 90 1020.8
20260507111506 49 205 0.0 3.0 0.00 0.00 0.00 89 1020.9
20260507111004 49 205 0.0 3.0 0.00 0.00 0.00 88 1020.9
20260507110504 49 206 1.0 1.0 0.00 0.00 0.00 90 1021.0
20260507105804 49 206 1.0 1.0 0.00 0.00 0.00 91 1021.1
20260507105306 49 206 0.0 1.0 0.00 0.00 0.00 91 1021.1
20260507104804 49 206 0.0 1.0 0.00 0.00 0.00 90 1021.1
20260507104304 49 360 1.0 1.0 0.00 0.00 0.00 89 1021.1
20260507103704 49 360 0.0 2.0 0.00 0.00 0.00 89 1021.2
20260507103204 49 360 1.0 2.0 0.00 0.00 0.00 89 1021.2
20260507102604 49 206 1.0 1.0 0.00 0.00 0.00 89 1021.3
20260507101904 49 206 0.0 1.0 0.00 0.00 0.00 89 1021.3
20260507101404 49 206 0.0 2.0 0.00 0.00 0.00 89 1021.3
20260507100904 49 206 0.0 2.0 0.00 0.00 0.00 90 1021.4
20260507100404 49 360 1.0 1.0 0.00 0.00 0.00 90 1021.3
20260507095904 49 360 0.0 2.0 0.00 0.00 0.00 90 1021.3
20260507095306 49 360 0.0 2.0 0.00 0.00 0.00 90 1021.4
20260507094804 49 360 1.0 1.0 0.00 0.00 0.00 91 1021.4
20260507094305 49 360 0.0 1.0 0.00 0.00 0.00 91 1021.4
20260507093604 49 360 0.0 1.0 0.00 0.00 0.00 91 1021.4
20260507093104 49 360 1.0 2.0 0.00 0.00 0.00 91 1021.4
20260507092604 49 360 0.0 2.0 0.00 0.00 0.00 91 1021.4
20260507092104 49 206 2.0 2.0 0.00 0.00 0.00 91 1021.5
20260507091604 49 206 1.0 2.0 0.00 0.00 0.00 91 1021.5
20260507090904 49 209 1.0 2.0 0.00 0.00 0.00 92 1021.5
20260507090404 49 208 1.0 1.0 0.00 0.00 0.00 91 1021.6
20260507085904 49 209 1.0 1.0 0.00 0.00 0.00 91 1021.6
20260507085404 49 208 0.0 1.0 0.00 0.00 0.00 92 1021.6
20260507084904 50 209 0.0 1.0 0.00 0.00 0.00 92 1021.6
20260507084404 50 360 0.0 0.0 0.00 0.00 0.00 92 1021.6
20260507083604 50 360 0.0 1.0 0.00 0.00 0.00 90 1021.6
20260507083104 50 209 1.0 1.0 0.00 0.00 0.00 90 1021.6
20260507082504 50 209 0.0 1.0 0.00 0.00 0.00 90 1021.6
20260507082004 50 360 1.0 1.0 0.00 0.00 0.00 90 1021.6
20260507081505 50 360 0.0 1.0 0.00 0.00 0.00 89 1021.6
20260507080404 50 209 1.0 1.0 0.00 0.00 0.00 88 1021.6
20260507075904 50 209 0.0 1.0 0.00 0.00 0.00 88 1021.5
20260507075404 50 209 0.0 1.0 0.00 0.00 0.00 87 1021.6
20260507074904 50 209 0.0 1.0 0.00 0.00 0.00 87 1021.6
20260507074404 50 360 0.0 2.0 0.00 0.00 0.00 87 1021.6
20260507073904 51 360 1.0 4.0 0.00 0.00 0.00 86 1021.6
20260507073404 51 360 1.0 4.0 0.00 0.00 0.00 86 1021.5
20260507072904 51 360 3.0 5.0 0.00 0.00 0.00 86 1021.5
20260507072405 51 205 3.0 5.0 0.00 0.00 0.00 86 1021.5
20260507071904 51 207 2.0 5.0 0.00 0.00 0.00 86 1021.4
20260507071404 51 360 4.0 4.0 0.00 0.00 0.00 87 1021.4
20260507070904 51 200 2.0 3.0 0.00 0.00 0.00 90 1021.4
20260507070404 51 196 3.0 3.0 0.00 0.00 0.00 91 1021.4
20260507065904 51 360 3.0 3.0 0.00 0.00 0.00 92 1021.4
20260507065404 51 194 0.0 1.0 0.00 0.00 0.00 93 1021.4
20260507064904 51 194 0.0 0.0 0.00 0.00 0.00 93 1021.4
20260507064404 51 360 0.0 0.0 0.00 0.00 0.00 92 1021.4
20260507063904 51 360 0.0 0.0 0.00 0.00 0.00 92 1021.4
20260507063404 51 194 0.0 1.0 0.00 0.00 0.00 93 1021.4
20260507062904 51 195 0.0 1.0 0.00 0.00 0.00 93 1021.5
20260507062404 51 195 0.0 0.0 0.00 0.00 0.00 92 1021.6
20260507061904 51 194 0.0 0.0 0.00 0.00 0.00 92 1021.4
20260507061404 51 194 0.0 0.0 0.00 0.00 0.00 91 1021.4
20260507060904 51 194 0.0 0.0 0.00 0.00 0.00 91 1021.5
20260507060404 51 360 0.0 1.0 0.00 0.00 0.00 91 1021.4
20260507055904 51 195 0.0 1.0 0.00 0.00 0.00 91 1021.4
20260507055404 51 194 0.0 0.0 0.00 0.00 0.00 91 1021.5
20260507054904 51 194 0.0 1.0 0.00 0.00 0.00 90 1021.5
20260507054204 51 195 0.0 1.0 0.00 0.00 0.00 90 1021.5
20260507053704 52 360 0.0 0.0 0.00 0.00 0.00 89 1021.5
20260507053204 52 360 0.0 1.0 0.00 0.00 0.00 89 1021.5
20260507052704 52 195 0.0 3.0 0.00 0.00 0.00 89 1021.6
20260507052204 52 195 0.0 3.0 0.00 0.00 0.00 89 1021.6
20260507051704 52 194 1.0 4.0 0.00 0.00 0.00 89 1021.6
20260507051204 52 174 1.0 4.0 0.00 0.00 0.00 88 1021.6
20260507050705 52 167 1.0 4.0 0.00 0.00 0.00 89 1021.6
20260507050005 52 185 0.0 2.0 0.00 0.00 0.00 89 1021.6
20260507045504 53 184 2.0 2.0 0.00 0.00 0.00 88 1021.7
20260507045004 53 178 1.0 3.0 0.00 0.00 0.00 88 1021.6
20260507044504 53 178 1.0 3.0 0.00 0.00 0.00 88 1021.7
20260507043804 53 183 0.0 3.0 0.00 0.00 0.00 88 1021.6
20260507043304 53 186 1.0 4.0 0.00 0.00 0.00 88 1021.6
20260507042804 53 166 1.0 4.0 0.00 0.00 0.00 88 1021.7
20260507042306 53 186 3.0 3.0 0.00 0.00 0.00 88 1021.6
20260507041804 53 188 2.0 3.0 0.00 0.00 0.00 88 1021.6
20260507041304 53 188 2.0 3.0 0.00 0.00 0.00 88 1021.6
20260507040704 53 181 2.0 3.0 0.00 0.00 0.00 87 1021.5
20260507040204 53 192 2.0 4.0 0.00 0.00 0.00 87 1021.5
20260507035704 53 173 1.0 4.0 0.00 0.00 0.00 87 1021.4
20260507035204 53 167 3.0 6.0 0.00 0.00 0.00 87 1021.3
20260507034704 53 169 2.0 6.0 0.00 0.00 0.00 87 1021.3
20260507034204 53 174 6.0 6.0 0.00 0.00 0.00 86 1021.3
20260507033404 53 200 5.0 8.0 0.00 0.00 0.00 86 1021.3
20260507032904 54 207 5.0 8.0 0.00 0.00 0.00 85 1021.2
20260507032405 54 198 6.0 6.0 0.00 0.00 0.00 85 1021.2
20260507031804 54 173 6.0 9.0 0.00 0.00 0.00 86 1021.2
20260507031304 54 205 3.0 9.0 0.00 0.00 0.00 86 1021.2
20260507030804 54 153 2.0 8.0 0.00 0.00 0.00 86 1021.2
20260507030205 54 212 7.0 9.0 0.00 0.00 0.00 86 1021.1
20260507025604 54 209 5.0 9.0 0.00 0.00 0.00 85 1021.1
20260507025104 54 207 6.0 6.0 0.00 0.00 0.00 86 1021.1
20260507024604 54 190 2.0 7.0 0.00 0.00 0.00 86 1021.0
20260507024104 54 173 3.0 9.0 0.00 0.00 0.00 85 1021.1
20260507023604 54 161 6.0 9.0 0.00 0.00 0.00 85 1021.1
20260507022904 55 155 3.0 5.0 0.00 0.00 0.00 85 1020.8
20260507022404 55 175 4.0 5.0 0.00 0.00 0.00 84 1020.8
20260507021904 55 164 2.0 6.0 0.00 0.00 0.00 85 1020.7
20260507021404 55 158 2.0 6.0 0.00 0.00 0.00 84 1020.7
20260507020904 55 163 6.0 8.0 0.00 0.00 0.00 84 1020.8
20260507020405 55 182 3.0 8.0 0.00 0.00 0.00 84 1020.8
20260507015904 55 150 6.0 7.0 0.00 0.00 0.00 84 1020.8
20260507015404 56 184 7.0 7.0 0.00 0.00 0.00 84 1020.8
20260507014904 56 360 6.0 8.0 0.00 0.00 0.00 83 1020.8
20260507014304 56 145 3.0 8.0 0.00 0.00 0.00 83 1020.9
20260507013804 56 203 5.0 7.0 0.00 0.00 0.00 83 1020.9
20260507013304 56 190 7.0 7.0 0.00 0.00 0.00 82 1020.8
20260507012804 57 163 7.0 8.0 0.00 0.00 0.00 84 1020.8
20260507012204 57 223 7.0 8.0 0.00 0.00 0.00 83 1020.8
20260507011704 57 223 5.0 7.0 0.00 0.00 0.00 83 1020.9
20260507010505 57 200 7.0 9.0 0.00 0.00 0.00 82 1020.9
20260507010004 57 211 8.0 9.0 0.00 0.00 0.00 81 1020.9
20260507005504 58 179 5.0 7.0 0.00 0.00 0.00 81 1020.9
20260507005004 58 221 2.0 7.0 0.00 0.00 0.00 82 1020.9
20260507004504 58 207 7.0 7.0 0.00 0.00 0.00 81 1020.9
20260507004004 58 153 4.0 8.0 0.00 0.00 0.00 82 1020.9
20260507003504 58 207 6.0 9.0 0.00 0.00 0.00 80 1021.0
20260507003005 58 227 8.0 9.0 0.00 0.00 0.00 81 1020.9
20260507002504 58 184 4.0 10.0 0.00 0.00 0.00 81 1020.9
20260507002004 58 244 5.0 10.0 0.00 0.00 0.00 81 1020.9
20260507001505 58 202 10.0 10.0 0.00 0.00 0.00 81 1020.8
20260507000904 58 216 6.0 6.0 0.00 0.00 0.00 82 1020.9
20260507000405 58 200 3.0 9.0 0.00 0.00 0.00 83 1020.8
20260506235904 58 211 4.0 9.0 0.00 0.00 0.00 81 1020.8
20260506235004 58 360 8.0 9.0 0.00 0.00 0.00 80 1020.8
20260506234504 58 209 6.0 9.0 0.00 0.00 0.00 81 1020.8
20260506233404 59 192 8.0 9.0 0.00 0.00 0.00 81 1020.8
20260506232904 59 360 9.0 9.0 0.00 0.00 0.00 80 1020.8
20260506232404 59 360 4.0 11.0 0.00 0.00 0.00 81 1020.8
20260506231704 59 360 5.0 11.0 0.00 0.00 0.00 80 1020.8
20260506231204 59 360 5.0 9.0 0.00 0.00 0.00 80 1020.7
20260506230705 60 206 6.0 8.0 0.00 0.00 0.00 80 1020.7
20260506230204 60 202 3.0 7.0 0.00 0.00 0.00 80 1020.8
20260506225604 60 221 4.0 5.0 0.00 0.00 0.00 80 1020.8
20260506225104 60 193 3.0 6.0 0.00 0.00 0.00 80 1020.8
20260506224304 61 210 5.0 6.0 0.00 0.00 0.00 80 1020.8
20260506223804 60 154 4.0 6.0 0.00 0.00 0.00 78 1020.9
20260506223104 61 184 3.0 6.0 0.00 0.00 0.00 79 1020.9
20260506222504 61 149 6.0 6.0 0.00 0.00 0.00 78 1020.9
20260506222005 61 190 1.0 4.0 0.00 0.00 0.00 77 1020.9
20260506221505 61 201 4.0 7.0 0.00 0.00 0.00 78 1020.9
20260506221004 61 171 1.0 7.0 0.00 0.00 0.00 77 1020.9
20260506220504 62 203 7.0 7.0 0.00 0.00 0.00 78 1020.9
20260506220005 62 195 5.0 5.0 0.00 0.00 0.00 78 1020.9
20260506215505 62 158 2.0 5.0 0.00 0.00 0.00 78 1020.9
20260506215004 62 187 3.0 5.0 0.00 0.00 0.00 77 1020.9
20260506214505 62 132 2.0 3.0 0.00 0.00 0.00 79 1020.9
20260506214004 62 144 2.0 4.0 0.00 0.00 0.00 77 1020.9
20260506213304 62 176 2.0 4.0 0.00 0.00 0.00 76 1020.9
20260506212704 62 360 1.0 4.0 0.00 0.00 0.00 76 1020.9
20260506212204 62 360 1.0 4.0 0.00 0.00 0.00 78 1020.9
20260506211704 61 360 2.0 5.0 0.00 0.00 0.00 77 1020.9
20260506211004 62 360 3.0 5.0 0.00 0.00 0.00 76 1020.8
20260506210404 61 360 1.0 6.0 0.00 0.00 0.00 80 1020.9
20260506205704 61 159 1.0 6.0 0.00 0.00 0.00 78 1020.8
20260506205204 61 171 4.0 4.0 0.00 0.00 0.00 77 1020.8
20260506204704 61 360 3.0 3.0 0.00 0.00 0.00 78 1020.9
20260506204204 60 182 1.0 6.0 0.00 0.00 0.00 81 1020.8
20260506203704 60 198 1.0 6.0 0.00 0.00 0.00 80 1020.8
20260506203204 60 211 5.0 6.0 0.00 0.00 0.00 79 1020.8
20260506202704 60 173 2.0 6.0 0.00 0.00 0.00 80 1020.7
20260506202004 60 195 6.0 6.0 0.00 0.00 0.00 80 1020.8
20260506201504 60 194 2.0 9.0 0.00 0.00 0.00 80 1020.8
20260506201004 60 215 3.0 9.0 0.00 0.00 0.00 78 1020.8
20260506200404 60 360 6.0 6.0 0.00 0.00 0.00 82 1020.8
20260506195704 60 207 5.0 7.0 0.00 0.00 0.00 81 1020.9
20260506195204 60 206 6.0 7.0 0.00 0.00 0.00 80 1020.9
20260506194704 60 198 5.0 5.0 0.00 0.00 0.00 78 1021.0
20260506194204 60 360 3.0 5.0 0.00 0.00 0.00 77 1020.9
20260506193704 60 360 4.0 6.0 0.00 0.00 0.00 76 1020.9
20260506193204 61 174 2.0 6.0 0.00 0.00 0.00 76 1020.9
20260506192704 62 179 6.0 6.0 0.00 0.00 0.00 74 1020.9
20260506192204 63 161 1.0 5.0 0.00 0.00 0.00 74 1020.9
20260506191704 62 134 1.0 6.0 0.00 0.00 0.00 77 1020.8
20260506191204 62 132 5.0 6.0 0.00 0.00 0.00 79 1020.9
20260506190704 61 157 6.0 6.0 0.00 0.00 0.00 77 1020.9
20260506190204 60 360 3.0 6.0 0.00 0.00 0.00 77 1020.7
20260506185704 60 171 4.0 6.0 0.00 0.00 0.00 78 1020.7
20260506185204 60 146 2.0 4.0 0.00 0.00 0.00 79 1020.8
20260506184704 60 148 1.0 5.0 0.00 0.00 0.00 81 1020.9
20260506184204 59 169 2.0 5.0 0.00 0.00 0.00 80 1020.9
20260506183704 59 175 2.0 5.0 0.00 0.00 0.00 80 1020.9
20260506183204 59 148 4.0 5.0 0.00 0.00 0.00 79 1020.8
20260506182704 59 182 3.0 6.0 0.00 0.00 0.00 82 1020.8